Overview Statistics Trail Chart Weather Telemetry Raw packets
 

This is the latest recevied weather packets stored in our database for station/object PY2XH-13. If no packets are shown the sender has not sent any weather packets the latest 10 day(s).

<< 2 3 4 5 6 7 8 >>
Time Temp. Humidity Pressure Rain* Wind** Luminosity Snow
1788495364 21.67° C 55% 1028.3 hPa - - - -
1788493565 21.67° C 57% 1028.5 hPa - - - -
1788491765 21.67° C 57% 1028.8 hPa - - - -
1788489965 21.67° C 59% 1028.9 hPa - - - -
1788488165 22.22° C 59% 1028.9 hPa - - - -
1788486364 22.22° C 60% 1029.1 hPa - - - -
1788484564 22.22° C 59% 1029.2 hPa - - - -
1788482764 22.22° C 57% 1029.4 hPa - - - -
1788480965 22.22° C 57% 1029.6 hPa - - - -
1788479165 22.22° C 57% 1029.6 hPa - - - -
1788477365 22.22° C 54% 1029.9 hPa - - - -
1788475564 22.22° C 52% 1029.7 hPa - - - -
1788473764 22.22° C 51% 1029.4 hPa - - - -
1788471964 22.22° C 49% 1029 hPa - - - -
1788470164 22.78° C 46% 1028.9 hPa - - - -
1788468364 22.78° C 43% 1028.7 hPa - - - -
1788466564 23.33° C 42% 1028.8 hPa - - - -
1788464765 23.33° C 41% 1028.7 hPa - - - -
1788462964 24.44° C 39% 1028.6 hPa - - - -
1788461165 24.44° C 38% 1028.5 hPa - - - -
1788459390 25° C 38% 1028.3 hPa - - - -
1788457565 23.89° C 40% 1028.4 hPa - - - -
1788455765 23.33° C 41% 1028.7 hPa - - - -
1788453965 22.78° C 47% 1029 hPa - - - -
1788452165 22.22° C 50% 1029.4 hPa - - - -

* Rain since midnight (hover to see other rain measurements)
** Current wind speed in m/s (hover to see current wind gust speed)